TimeAKST,TemperatureF,Dew PointF,Humidity,Sea Level PressureIn,VisibilityMPH,Wind Direction,Wind SpeedMPH,Gust SpeedMPH,PrecipitationIn,Events,Conditions,WindDirDegrees,DateUTC
12:53 AM,26.1,23.0,88,29.99,10.0,Calm,Calm,-,N/A,,Overcast,0,2012-11-25 09:53:00
1:53 AM,26.1,23.0,88,30.00,10.0,Calm,Calm,-,N/A,,Overcast,0,2012-11-25 10:53:00
3:53 AM,27.0,24.1,89,30.00,10.0,Calm,Calm,-,N/A,,Overcast,0,2012-11-25 12:53:00
4:53 AM,26.1,23.0,88,30.01,10.0,Calm,Calm,-,N/A,,Overcast,0,2012-11-25 13:53:00
5:53 AM,25.0,23.0,92,30.01,10.0,South,3.5,-,N/A,,Mostly Cloudy,170,2012-11-25 14:53:00
6:53 AM,24.1,19.9,84,30.02,10.0,Calm,Calm,-,N/A,,Clear,0,2012-11-25 15:53:00
7:53 AM,21.0,19.0,92,30.03,10.0,Calm,Calm,-,N/A,,Clear,0,2012-11-25 16:53:00
8:53 AM,19.9,17.1,89,30.04,10.0,Calm,Calm,-,N/A,,Clear,0,2012-11-25 17:53:00
9:53 AM,19.9,17.1,89,30.06,10.0,Calm,Calm,-,N/A,,Clear,0,2012-11-25 18:53:00
10:53 AM,21.0,18.0,88,30.06,10.0,Calm,Calm,-,N/A,,Clear,0,2012-11-25 19:53:00
11:53 AM,25.0,21.0,85,30.07,10.0,Calm,Calm,-,N/A,,Clear,0,2012-11-25 20:53:00
12:53 PM,27.0,23.0,85,30.07,10.0,Calm,Calm,-,N/A,,Clear,0,2012-11-25 21:53:00
1:53 PM,27.0,23.0,85,30.07,10.0,Calm,Calm,-,N/A,,Clear,0,2012-11-25 22:53:00
2:53 PM,26.1,23.0,88,30.07,10.0,Calm,Calm,-,N/A,,Clear,0,2012-11-25 23:53:00
3:53 PM,27.0,23.0,85,30.08,10.0,Variable,3.5,-,N/A,,Clear,0,2012-11-26 00:53:00
4:53 PM,24.1,21.0,88,30.09,10.0,Calm,Calm,-,N/A,,Clear,0,2012-11-26 01:53:00
5:53 PM,21.9,19.0,89,30.10,10.0,Calm,Calm,-,N/A,,Clear,0,2012-11-26 02:53:00
6:53 PM,21.0,18.0,88,30.12,10.0,Calm,Calm,-,N/A,,Clear,0,2012-11-26 03:53:00
7:53 PM,19.9,17.1,89,30.12,10.0,Calm,Calm,-,N/A,,Clear,0,2012-11-26 04:53:00
8:53 PM,19.0,16.0,88,30.14,10.0,Calm,Calm,-,N/A,,Clear,0,2012-11-26 05:53:00
9:53 PM,19.0,15.1,85,30.15,10.0,Calm,Calm,-,N/A,,Clear,0,2012-11-26 06:53:00
10:53 PM,18.0,15.1,88,30.17,10.0,Calm,Calm,-,N/A,,Clear,0,2012-11-26 07:53:00
11:53 PM,18.0,15.1,88,30.18,10.0,Calm,Calm,-,N/A,,Clear,0,2012-11-26 08:53:00